Location: Molveno
(46.1500°N, 10.9667°E)
Time: 15:51:04
(UTC+00:00)

Meteor 1-26 Rocket - Pass Details

Date: 05 July 2020
Orbit: 811 x 924 km, 81.3° (Epoch: 11 August)

Event Time Altitude Azimuth Distance (km) Brightness Sun altitude
Rises 23:24:46 0° 346° (NNW) 3,581 8.8 -21.2°
Reaches altitude 10° 23:27:17 10° 344° (NNW) 2,629 7.8 -21.2°
Maximum altitude 23:33:14 65° 264° (W) 1,001 4.5 -21.1°
Enters shadow 23:35:18 40° 199° (SSW) 1,306 4.7 -21.1°
